Volver al catálogo

FENGYUN 1C DEB

ActivoSSO
NORAD 31243·DEBRIS·🇨🇳 China

Lanzado May 10, 1999 desde Taiyuan Satellite Launch Center

Loading…

Próximos Pases (próximas 24 horas)

TLE

ActualizadoSource: Space-Track

Época: Sep 11, 2026, 12:52 UTC

1 31243U 99025BLZ 26254.53616761  .00000873  00000-0  52929-3 0  9990
2 31243  98.7267 290.8585 0066489 119.1656 241.6188 14.07763105731457

Sigue FENGYUN 1C DEB en tiempo real con AllMySat

Download on the App Store